| time (UTC) | temp F | wind direction | speed knots | gust knots | rain 1hr in | rain 24hr in | rain mn in | humidity % | barometer mb |
| 20260505001529 | 58 | 264 | 14.8 | 20.9 | 0.00 | 0.00 | 0.00 | 45 | 1002.3 |
| 20260505000030 | 58 | 250 | 17.4 | 22.6 | 0.00 | 0.00 | 0.00 | 46 | 1002.3 |
| 20260504234533 | 58 | 264 | 19.1 | 25.2 | 0.00 | 0.00 | 0.00 | 42 | 1002.3 |
| 20260504233027 | 59 | 235 | 16.5 | 20.9 | 0.00 | 0.00 | 0.00 | 42 | 1002.4 |
| 20260504231526 | 59 | 242 | 13.9 | 23.5 | 0.00 | 0.00 | 0.00 | 43 | 1002.4 |
| 20260504230026 | 60 | 261 | 19.1 | 28.7 | 0.00 | 0.00 | 0.00 | 36 | 1002.2 |
| 20260504224526 | 61 | 280 | 18.2 | 23.5 | 0.00 | 0.00 | 0.00 | 41 | 1002.0 |
| 20260504223024 | 61 | 246 | 17.4 | 23.5 | 0.00 | 0.00 | 0.00 | 41 | 1001.8 |
| 20260504221523 | 62 | 251 | 14.8 | 20.0 | 0.00 | 0.00 | 0.00 | 39 | 1001.4 |
| 20260504220023 | 62 | 252 | 14.8 | 21.7 | 0.00 | 0.00 | 0.00 | 41 | 1001.2 |
| 20260504214523 | 63 | 282 | 17.4 | 20.9 | 0.00 | 0.00 | 0.00 | 38 | 1000.7 |
| 20260504213021 | 64 | 265 | 17.4 | 22.6 | 0.00 | 0.00 | 0.00 | 37 | 1000.5 |
| 20260504211520 | 64 | 253 | 15.6 | 24.3 | 0.00 | 0.00 | 0.00 | 38 | 1000.5 |
| 20260504210022 | 65 | 248 | 14.8 | 25.2 | 0.00 | 0.00 | 0.00 | 40 | 1000.4 |
| 20260504204519 | 65 | 290 | 10.4 | 22.6 | 0.00 | 0.00 | 0.00 | 41 | 1000.4 |
| 20260504203024 | 65 | 292 | 14.8 | 20.9 | 0.00 | 0.00 | 0.00 | 39 | 1000.3 |
| 20260504201518 | 66 | 267 | 15.6 | 23.5 | 0.00 | 0.00 | 0.00 | 37 | 1000.3 |
| 20260504200017 | 67 | 248 | 13.0 | 19.1 | 0.00 | 0.00 | 0.00 | 40 | 1000.1 |
| 20260504194517 | 67 | 269 | 15.6 | 20.9 | 0.00 | 0.00 | 0.00 | 38 | 999.9 |
| 20260504193018 | 67 | 259 | 16.5 | 21.7 | 0.00 | 0.00 | 0.00 | 39 | 999.8 |
| 20260504191523 | 67 | 289 | 13.0 | 20.0 | 0.00 | 0.00 | 0.00 | 38 | 999.7 |
| 20260504190014 | 67 | 250 | 17.4 | 23.5 | 0.00 | 0.00 | 0.00 | 38 | 999.7 |
| 20260504184514 | 67 | 277 | 8.7 | 20.9 | 0.00 | 0.00 | 0.00 | 39 | 999.6 |
| 20260504183014 | 67 | 302 | 11.3 | 19.1 | 0.00 | 0.00 | 0.00 | 39 | 999.3 |
| 20260504181513 | 68 | 259 | 12.2 | 18.2 | 0.00 | 0.00 | 0.00 | 37 | 999.2 |
| 20260504180012 | 67 | 256 | 13.9 | 20.0 | 0.00 | 0.00 | 0.00 | 39 | 999.0 |
| 20260504174512 | 67 | 240 | 11.3 | 15.6 | 0.00 | 0.00 | 0.00 | 42 | 998.9 |
| 20260504173010 | 67 | 257 | 9.6 | 13.9 | 0.00 | 0.00 | 0.00 | 45 | 998.8 |
| 20260504171510 | 68 | 267 | 8.7 | 18.2 | 0.00 | 0.00 | 0.00 | 44 | 998.8 |
| 20260504081554 | 49 | 170 | 0.0 | 3.5 | 0.00 | 0.00 | 0.00 | 61 | 1000.9 |
| 20260504050015 | 53 | 189 | 0.0 | 3.5 | 0.00 | 0.00 | 0.00 | 49 | 1003.6 |
| 20260504044516 | 53 | 193 | 0.0 | 3.5 | 0.00 | 0.00 | 0.00 | 48 | 1003.8 |
| 20260504043011 | 54 | 238 | 0.0 | 0.0 | 0.00 | 0.00 | 0.00 | 47 | 1004.0 |
| 20260504041609 | 54 | 239 | 0.0 | 0.0 | 0.00 | 0.00 | 0.00 | 46 | 1004.2 |
| 20260504040010 | 54 | 241 | 0.0 | 0.0 | 0.00 | 0.00 | 0.00 | 47 | 1004.5 |
| 20260504034507 | 55 | 241 | 0.0 | 0.0 | 0.00 | 0.00 | 0.00 | 46 | 1004.6 |
| 20260504033006 | 56 | 241 | 0.0 | 0.0 | 0.00 | 0.00 | 0.00 | 46 | 1004.8 |
| 20260504031504 | 56 | 241 | 0.0 | 0.0 | 0.00 | 0.00 | 0.00 | 45 | 1004.9 |
| 20260504030004 | 57 | 241 | 0.0 | 0.0 | 0.00 | 0.00 | 0.00 | 44 | 1004.9 |
| 20260504024504 | 57 | 242 | 0.0 | 0.0 | 0.00 | 0.00 | 0.00 | 43 | 1004.9 |
| 20260504023003 | 57 | 242 | 0.0 | 0.0 | 0.00 | 0.00 | 0.00 | 44 | 1004.9 |
| 20260504021501 | 58 | 242 | 0.0 | 0.0 | 0.00 | 0.00 | 0.00 | 46 | 1004.9 |
| 20260504020001 | 60 | 242 | 0.0 | 0.0 | 0.00 | 0.00 | 0.00 | 39 | 1005.0 |
| 20260504014604 | 61 | 242 | 0.0 | 0.0 | 0.00 | 0.00 | 0.00 | 40 | 1004.9 |
| 20260504013112 | 63 | 242 | 0.0 | 0.9 | 0.00 | 0.00 | 0.00 | 40 | 1005.0 |
| 20260504011559 | 64 | 242 | 0.0 | 0.0 | 0.00 | 0.00 | 0.00 | 41 | 1005.0 |
| 20260504010114 | 65 | 242 | 0.9 | 3.5 | 0.00 | 0.00 | 0.00 | 47 | 1005.0 |
| 20260504004557 | 65 | 246 | 2.6 | 7.0 | 0.00 | 0.00 | 0.00 | 49 | 1005.1 |
| 20260504003055 | 66 | 246 | 4.3 | 8.7 | 0.00 | 0.00 | 0.00 | 46 | 1005.0 |